When you browse on this site, cookies collect data to enhance your experience and personalize the content and advertising you see.
Visit our Privacy Policy to learn more. By continuing to use the site, you agree to this use of cookies and data.
  • In Hungary
  • List of Countries
  • For 7 days
  • Water Temperature
  • Weather Map
  • News
  • Weather Widgets
  • user-avatar
    Login

    Hourly Weather Vasilevskiy Moh

    Today, 23 January, Thursday

    Time Temperature Precipitation Wind Pressure Humidity
    00:00 -6°C° 0.1 mm 6 mps 736 mmHg 85%
    01:00 -6°C° 0.1 mm 6 mps 737 mmHg 84%
    02:00 -6°C° 0.1 mm 6 mps 738 mmHg 82%
    03:00 -8°C° 0 mm 6 mps 738 mmHg 80%
    04:00 -8°C° 0 mm 5 mps 739 mmHg 79%
    05:00 -8°C° 0 mm 5 mps 739 mmHg 78%
    06:00 -8°C° 0.1 mm 5 mps 740 mmHg 77%
    07:00 -8°C° 0.1 mm 5 mps 740 mmHg 76%
    08:00 -10°C° 0.1 mm 5 mps 741 mmHg 75%
    09:00 -8°C° 0 mm 5 mps 742 mmHg 73%
    10:00 -8°C° 0 mm 5 mps 742 mmHg 71%
    11:00 -8°C° 0 mm 5 mps 742 mmHg 69%
    12:00 -8°C° 0 mm 6 mps 742 mmHg 70%
    13:00 -8°C° 0 mm 6 mps 743 mmHg 71%
    14:00 -8°C° 0 mm 6 mps 743 mmHg 72%
    15:00 -7°C° 0.1 mm 5 mps 743 mmHg 76%
    16:00 -7°C° 0.1 mm 5 mps 744 mmHg 80%
    17:00 -7°C° 0.1 mm 4 mps 744 mmHg 84%
    18:00 -7°C° 0 mm 4 mps 744 mmHg 84%
    19:00 -7°C° 0 mm 3 mps 744 mmHg 84%
    20:00 -7°C° 0 mm 3 mps 745 mmHg 83%
    21:00 -7°C° 0 mm 3 mps 744 mmHg 83%
    22:00 -6°C° 0 mm 2 mps 744 mmHg 84%
    23:00 -6°C° 0 mm 2 mps 744 mmHg 84%

    Tomorrow, 24 January, Friday

    Time Temperature Precipitation Wind Pressure Humidity
    00:00 -7°C° 0 mm 3 mps 744 mmHg 84%
    01:00 -6°C° 0 mm 3 mps 744 mmHg 85%
    02:00 -6°C° 0 mm 3 mps 743 mmHg 86%
    03:00 -5°C° 0.1 mm 3 mps 742 mmHg 87%
    04:00 -5°C° 0.1 mm 4 mps 741 mmHg 89%
    05:00 -4°C° 0.1 mm 4 mps 740 mmHg 90%
    06:00 -5°C° 0.2 mm 5 mps 740 mmHg 91%
    07:00 -5°C° 0.2 mm 5 mps 739 mmHg 92%
    08:00 -4°C° 0.2 mm 6 mps 738 mmHg 93%
    09:00 -4°C° 0.4 mm 5 mps 737 mmHg 93%
    10:00 -2°C° 0.4 mm 5 mps 737 mmHg 93%
    11:00 -2°C° 0.4 mm 5 mps 736 mmHg 94%
    12:00 -1°C° 0.1 mm 5 mps 735 mmHg 94%
    13:00 0°C° 0.1 mm 5 mps 735 mmHg 95%
    14:00 0°C° 0.1 mm 4 mps 734 mmHg 96%
    15:00 0°C° 0.4 mm 4 mps 734 mmHg 96%
    16:00 0°C° 0.4 mm 5 mps 733 mmHg 97%
    17:00 0°C° 0.4 mm 5 mps 733 mmHg 97%
    18:00 0°C° 0.2 mm 5 mps 733 mmHg 95%
    19:00 0°C° 0.2 mm 4 mps 734 mmHg 92%
    20:00 -1°C° 0.2 mm 4 mps 734 mmHg 90%
    21:00 -2°C° 0 mm 4 mps 734 mmHg 89%
    22:00 -2°C° 0 mm 4 mps 734 mmHg 89%
    23:00 -3°C° 0 mm 4 mps 734 mmHg 88%

    Day after tomorrow, 25 January, Saturday

    Time Temperature Precipitation Wind Pressure Humidity
    00:00 -3°C° 0 mm 4 mps 734 mmHg 89%
    01:00 -3°C° 0 mm 4 mps 734 mmHg 89%
    02:00 -2°C° 0 mm 4 mps 734 mmHg 90%
    03:00 -2°C° 0 mm 4 mps 734 mmHg 88%
    04:00 -3°C° 0 mm 4 mps 734 mmHg 86%
    05:00 -4°C° 0 mm 5 mps 733 mmHg 84%
    06:00 -4°C° 0 mm 5 mps 733 mmHg 84%
    07:00 -2°C° 0 mm 5 mps 733 mmHg 84%
    08:00 -2°C° 0 mm 5 mps 733 mmHg 85%
    09:00 -3°C° 0 mm 6 mps 733 mmHg 81%
    10:00 -3°C° 0 mm 6 mps 733 mmHg 78%
    11:00 -2°C° 0 mm 6 mps 732 mmHg 74%
    12:00 -3°C° 0.5 mm 6 mps 732 mmHg 75%
    13:00 -3°C° 0.5 mm 6 mps 732 mmHg 76%
    14:00 -3°C° 0.5 mm 6 mps 732 mmHg 77%
    15:00 -4°C° 0.1 mm 6 mps 732 mmHg 77%
    16:00 -4°C° 0.1 mm 5 mps 733 mmHg 78%
    17:00 -5°C° 0.1 mm 5 mps 733 mmHg 78%
    18:00 -5°C° 0 mm 5 mps 733 mmHg 79%
    19:00 -5°C° 0 mm 5 mps 734 mmHg 80%
    20:00 -5°C° 0 mm 6 mps 735 mmHg 81%
    21:00 -5°C° 0 mm 6 mps 735 mmHg 81%
    22:00 -5°C° 0 mm 6 mps 736 mmHg 81%
    23:00 -5°C° 0 mm 6 mps 736 mmHg 81%

    26 January, Sunday

    Time Temperature Precipitation Wind Pressure Humidity
    00:00 -5°C° 0 mm 6 mps 737 mmHg 80%
    01:00 -6°C° 0 mm 6 mps 738 mmHg 80%
    02:00 -6°C° 0 mm 5 mps 739 mmHg 80%
    03:00 -6°C° 0 mm 5 mps 740 mmHg 80%
    04:00 -6°C° 0 mm 5 mps 740 mmHg 81%
    05:00 -7°C° 0 mm 5 mps 741 mmHg 82%
    06:00 -7°C° 0 mm 5 mps 742 mmHg 82%
    07:00 -7°C° 0 mm 5 mps 743 mmHg 83%
    08:00 -7°C° 0 mm 5 mps 744 mmHg 83%
    09:00 -7°C° 0 mm 5 mps 745 mmHg 82%
    10:00 -5°C° 0 mm 4 mps 746 mmHg 81%
    11:00 -5°C° 0 mm 4 mps 746 mmHg 79%
    12:00 -5°C° 0 mm 4 mps 747 mmHg 79%
    13:00 -5°C° 0 mm 3 mps 747 mmHg 78%
    14:00 -4°C° 0 mm 3 mps 747 mmHg 78%
    15:00 -5°C° 0 mm 3 mps 748 mmHg 81%
    16:00 -5°C° 0 mm 2 mps 748 mmHg 84%
    17:00 -5°C° 0 mm 2 mps 748 mmHg 87%
    18:00 -5°C° 0 mm 2 mps 748 mmHg 87%
    19:00 -5°C° 0 mm 2 mps 748 mmHg 88%
    20:00 -6°C° 0 mm 2 mps 749 mmHg 88%
    21:00 -6°C° 0 mm 2 mps 749 mmHg 88%
    22:00 -5°C° 0 mm 2 mps 748 mmHg 88%
    23:00 -5°C° 0 mm 2 mps 748 mmHg 88%

    27 January, Monday

    Time Temperature Precipitation Wind Pressure Humidity
    00:00 -5°C° 0 mm 2 mps 748 mmHg 89%
    01:00 -5°C° 0 mm 2 mps 748 mmHg 90%
    02:00 -4°C° 0 mm 2 mps 748 mmHg 92%
    03:00 -4°C° 0.4 mm 2 mps 747 mmHg 93%
    04:00 -3°C° 0.4 mm 2 mps 747 mmHg 95%
    05:00 -4°C° 0.4 mm 3 mps 747 mmHg 97%
    06:00 -2°C° 0.4 mm 3 mps 746 mmHg 97%
    07:00 -1°C° 0.4 mm 3 mps 746 mmHg 97%
    08:00 -1°C° 0.4 mm 4 mps 746 mmHg 97%
    09:00 -2°C° 0.2 mm 4 mps 746 mmHg 97%
    10:00 -2°C° 0.2 mm 4 mps 746 mmHg 97%
    11:00 -2°C° 0.2 mm 4 mps 745 mmHg 97%
    12:00 -1°C° 0.4 mm 3 mps 745 mmHg 97%
    13:00 -1°C° 0.4 mm 3 mps 745 mmHg 97%
    14:00 -1°C° 0.4 mm 3 mps 744 mmHg 98%
    15:00 -1°C° 0.3 mm 3 mps 744 mmHg 97%
    16:00 -1°C° 0.3 mm 3 mps 744 mmHg 97%
    17:00 -1°C° 0.3 mm 3 mps 744 mmHg 97%
    18:00 -1°C° 0.4 mm 3 mps 743 mmHg 98%
    19:00 -1°C° 0.4 mm 3 mps 743 mmHg 98%
    20:00 -1°C° 0.4 mm 3 mps 743 mmHg 98%
    21:00 -1°C° 0.3 mm 2 mps 742 mmHg 98%
    22:00 -1°C° 0.3 mm 2 mps 742 mmHg 98%
    23:00 -1°C° 0.3 mm 2 mps 742 mmHg 98%

    28 January, Tuesday

    Time Temperature Precipitation Wind Pressure Humidity
    00:00 -1°C° 0.2 mm 2 mps 741 mmHg 98%
    01:00 -1°C° 0.2 mm 2 mps 741 mmHg 98%
    02:00 -1°C° 0.2 mm 2 mps 741 mmHg 98%
    03:00 -1°C° 0.1 mm 2 mps 740 mmHg 98%
    04:00 -1°C° 0.1 mm 2 mps 740 mmHg 98%
    05:00 -1°C° 0.1 mm 2 mps 740 mmHg 98%
    06:00 -1°C° 0.2 mm 2 mps 740 mmHg 98%
    07:00 +1°C° 0.2 mm 1 mps 740 mmHg 98%
    08:00 +1°C° 0.2 mm 1 mps 740 mmHg 98%
    09:00 +1°C° 0.1 mm 1 mps 740 mmHg 98%
    10:00 +1°C° 0.1 mm 1 mps 740 mmHg 98%
    11:00 +1°C° 0.1 mm 1 mps 741 mmHg 98%
    12:00 +1°C° 0 mm 1 mps 741 mmHg 98%
    13:00 +2°C° 0 mm 1 mps 741 mmHg 97%
    14:00 +2°C° 0 mm 1 mps 741 mmHg 97%
    15:00 +1°C° 0 mm 1 mps 742 mmHg 97%
    16:00 +1°C° 0 mm 1 mps 742 mmHg 97%
    17:00 +1°C° 0 mm 1 mps 743 mmHg 97%
    18:00 -1°C° 0 mm 2 mps 743 mmHg 97%
    19:00 -1°C° 0 mm 2 mps 743 mmHg 96%
    20:00 -1°C° 0 mm 2 mps 743 mmHg 95%
    21:00 -2°C° 0 mm 2 mps 743 mmHg 94%
    22:00 -3°C° 0 mm 2 mps 743 mmHg 93%
    23:00 -3°C° 0 mm 2 mps 743 mmHg 93%
    Show more